EHI
3 2 2 2 1 1 3 3 3 3 4 5 6 8 8 6 3 2 1 0 0 0 1 2 3 3 3 3 4 5 5 4 3 3 3 3 3 3 3 3 3 3 3 3
2 2 2 2 2 2 3 3 3 3 4 5 6 8 8 5 2 2 1 0 0 1 2 3 3 3 3 3 3 4 4 3 3 3 3 3 2 2 3 3 3 3 3 3
2 2 2 3 3 3 3 3 3 3 4 4 4 5 6 4 2 2 2 1 1 1 3 3 3 3 3 3 3 3 3 3 3 3 3 2 1 1 2 3 3 3 3 3
3 3 3 3 3 3 3 3 3 3 3 2 1 2 4 3 2 2 2 2 2 3 3 3 3 3 3 3 3 3 3 3 3 3 3 2 1 1 2 2 2 2 3 3
3 3 3 3 3 3 3 3 4 3 3 1 0 1 2 1 1 1 2 2 3 3 3 3 3 3 3 3 3 3 3 3 3 3 3 3 2 1 1 1 1 1 1 2
3 3 3 3 3 3 3 4 5 4 3 1 0 1 1 0 0 0 1 2 3 3 3 3 3 3 3 3 3 3 3 3 3 3 3 3 3 3 2 1 1 1 0 1
3 3 3 3 3 3 4 4 5 4 2 1 0 1 0 0 0 0 1 3 3 3 3 3 3 3 2 2 2 2 3 3 3 3 3 3 3 3 3 3 2 2 1 1
2 3 3 3 3 4 4 3 3 3 1 0 0 0 0 0 1 1 2 3 3 3 3 3 3 3 3 3 3 3 3 3 3 3 2 2 2 2 3 3 3 3 3 2
3 3 3 3 3 3 2 1 1 1 0 0 0 0 0 1 2 3 3 3 3 3 3 3 3 3 3 3 3 3 3 3 3 3 3 2 1 1 1 2 2 2 3 3
3 3 3 3 3 1 1 0 0 0 0 0 0 0 0 1 2 3 3 3 3 3 3 3 2 2 2 3 3 3 3 3 3 3 3 2 1 0 0 1 1 1 1 2
3 3 2 2 2 1 0 0 0 0 0 0 0 0 0 1 2 3 3 3 3 3 3 2 1 0 1 3 3 3 3 3 3 3 2 2 1 0 0 0 0 0 0 1
2 1 1 1 1 0 0 0 0 0 0 0 0 0 0 0 1 1 3 3 3 2 1 1 0 0 1 2 3 3 3 3 3 3 3 3 2 1 0 0 0 0 0 0
2 1 0 0 0 0 0 0 0 0 0 0 0 0 0 0 0 1 2 2 1 1 0 0 0 0 1 2 3 3 3 3 3 3 3 3 2 1 0 0 0 0 0 0
1 0 1 1 1 0 0 0 0 0 0 0 0 0 0 0 0 0 1 1 0 0 0 0 0 0 1 2 3 3 3 2 2 3 3 2 1 1 0 0 0 0 0 0
0 0 1 1 1 0 0 0 0 0 0 0 0 0 0 0 0 0 0 0 0 0 0 0 0 0 0 1 2 2 2 2 2 2 2 1 0 0 0 0 0 0 0 0
0 0 0 0 0 0 0 0 0 0 0 0 0 0 0 0 0 0 0 0 0 0 0 0 0 0 0 0 1 1 1 1 1 1 1 0 0 0 0 0 0 0 0 0
0 0 0 0 0 0 0 0 0 0 0 0 0 0 0 0 0 0 0 0 0 0 0 0 0 0 0 0 0 0 0 0 0 0 0 0 0 0 0 0 0 0 0 0
0 0 0 0 0 0 0 0 0 0 0 0 0 0 0 0 0 0 0 0 0 0 0 0 0 0 0 0 0 0 0 0 0 0 0 0 0 0 0 0 0 0 0 0
0 0 0 0 0 0 0 0 0 0 0 0 0 0 0 0 0 0 0 0 0 0 0 0 0 0 0 0 0 0 0 0 0 0 0 0 0 0 0 0 0 0 0 0
0 0 0 0 0 0 0 0 0 0 0 0 0 0 0 0 0 0 0 0 0 0 0 0 0 0 0 0 0 0 0 0 0 0 0 0 0 0 0 0 0 0 0 0
1 1 1 1 1 1 0 0 0 0 0 0 0 0 0 0 0 0 0 0 0 0 0 0 0 0 0 0 0 0 0 0 0 0 0 0 0 0 0 0 0 0 0 0
2 2 2 3 2 1 0 0 0 0 0 0 0 0 0 0 0 0 0 0 0 0 0 0 0 0 0 0 0 0 0 0 0 0 0 0 0 0 0 0 0 0 0 0
3 3 3 3 3 2 1 0 0 0 0 0 0 0 0 0 0 0 0 0 0 0 0 0 0 0 0 0 0 0 0 0 0 0 0 0 0 0 0 0 0 0 0 0
3 3 3 3 3 3 2 1 0 0 0 0 0 0 0 0 0 0 0 0 0 0 0 0 0 0 0 0 0 0 0 0 0 0 0 0 0 0 0 0 0 0 0 0
3 3 3 3 3 3 2 1 0 0 0 0 0 0 0 0 0 0 0 0 0 0 0 0 0 0 0 0 0 0 0 0 0 0 0 0 0 0 0 0 0 0 0 0
2 3 3 3 3 3 2 1 0 0 0 0 0 0 0 0 0 0 0 0 0 0 0 0 0 0 0 0 0 0 0 0 0 0 0 0 0 0 0 0 0 0 0 0
1 2 3 3 3 3 1 0 0 0 0 0 0 0 0 0 0 0 0 0 0 0 0 0 0 0 0 0 0 0 0 0 0 0 0 0 0 0 0 0 0 0 0 0
Wind_Speed
3 3 3 4 5 6 7 8 8 7 6 2 3 6 8 10 12 12 12 11 10 9 8 7 6 5 4 4 4 4 4 5 5 4 5 5 5 5 6 6 6 6 6 7
3 3 4 5 5 5 6 6 7 7 3 5 6 7 9 10 12 12 12 11 10 10 9 8 7 6 4 4 4 4 4 5 5 5 5 6 6 5 6 6 6 6 7 7
3 3 6 5 3 4 4 4 6 6 3 6 7 8 8 9 10 11 11 11 11 10 9 7 7 6 5 4 5 5 5 5 5 5 5 5 6 6 6 6 6 6 7 7
3 4 5 3 4 2 3 1 2 3 5 5 6 7 7 7 9 10 11 11 10 9 9 8 7 6 5 5 5 5 5 5 5 5 5 5 6 6 6 5 6 6 6 7
4 5 3 3 2 2 3 0 3 3 7 8 10 9 7 6 7 9 10 10 10 9 9 8 8 7 6 6 5 5 5 5 5 5 5 5 6 7 6 5 6 5 6 7
4 5 2 4 4 2 5 3 5 4 7 8 9 5 6 8 9 10 11 10 10 10 10 9 8 7 7 6 6 6 6 5 5 5 6 6 6 6 5 4 4 5 7 7
5 4 1 6 3 4 4 5 4 4 6 7 3 6 11 12 11 11 12 12 11 11 9 8 8 7 7 7 6 6 6 6 6 6 6 6 5 4 4 4 5 5 6 6
4 4 3 6 2 4 6 4 4 5 7 8 10 13 13 13 12 12 12 12 11 10 9 8 8 7 7 7 7 6 6 6 6 5 5 5 5 4 4 4 5 4 4 4
3 4 5 4 5 4 2 4 5 7 9 11 12 13 13 13 12 12 12 11 10 10 10 9 7 7 8 7 6 7 6 6 5 5 4 4 3 4 3 3 3 3 3 3
1 3 3 3 4 4 4 5 7 9 11 12 13 13 13 12 12 12 11 11 10 11 11 9 8 7 7 7 6 7 6 6 5 4 4 4 2 2 3 2 2 2 2 3
1 2 3 4 4 5 7 8 10 10 10 12 14 14 13 12 12 11 11 10 10 10 10 10 9 8 7 7 6 6 6 5 4 4 4 4 4 5 4 6 6 4 4 3
2 3 1 3 4 6 8 9 10 11 11 12 12 14 13 12 11 11 11 10 10 10 10 10 9 8 8 7 7 6 6 4 3 4 3 3 4 5 6 5 4 4 5 5
2 2 3 4 5 7 8 10 10 11 12 12 12 13 13 12 11 11 11 11 11 10 10 9 9 9 8 7 6 6 5 4 3 3 3 3 3 4 5 5 2 2 1 2
3 4 5 6 7 8 10 11 11 11 12 12 12 12 12 12 12 12 11 11 11 10 10 9 9 8 8 7 7 6 5 4 2 3 3 3 3 3 3 3 4 5 5 4
2 2 5 7 9 10 11 12 12 12 12 12 12 12 13 13 12 11 11 11 11 10 10 10 9 8 8 7 7 6 5 4 2 2 2 2 2 2 2 2 2 3 5 7
4 6 9 10 11 11 12 12 12 13 12 12 12 12 12 12 12 11 11 10 10 10 9 9 8 8 8 7 6 5 4 3 1 2 2 2 2 1 2 2 1 1 2 3
7 8 9 10 11 11 11 11 11 12 13 13 13 13 13 13 12 11 11 10 9 9 9 8 8 8 8 7 6 5 5 6 6 4 2 2 1 1 1 0 1 1 1 4
6 7 8 10 10 11 11 11 11 12 12 13 13 13 13 13 12 12 11 11 10 9 9 8 8 8 7 7 5 3 4 4 4 2 2 1 0 1 1 1 1 1 1 5
6 7 9 10 10 10 11 11 12 12 13 13 14 13 12 12 11 11 11 11 11 10 9 8 6 7 7 6 4 5 4 4 3 3 2 3 4 2 2 2 1 1 2 1
7 8 9 10 11 11 11 11 12 12 12 13 13 13 12 12 11 11 11 10 9 8 9 9 9 8 8 7 6 5 4 4 4 3 3 3 2 2 2 2 2 2 2 3
7 8 10 10 11 11 11 12 13 13 13 13 13 13 12 12 12 11 11 10 9 9 10 9 8 8 7 6 8 6 5 5 4 4 3 3 2 2 2 3 3 3 3 3
6 7 9 10 11 11 11 12 12 13 13 13 13 13 13 12 12 11 11 7 9 9 9 10 9 6 5 6 7 6 6 5 5 4 4 3 3 3 3 3 4 3 3 3
5 7 8 10 11 11 12 12 13 13 14 14 14 13 13 11 10 10 10 9 9 11 10 8 7 9 7 8 7 6 6 6 6 5 5 5 5 4 4 4 4 4 4 4
5 6 7 9 10 12 13 12 12 11 12 13 13 13 12 10 9 9 8 9 9 11 10 7 10 10 10 9 8 7 7 7 7 6 6 6 5 5 5 5 5 5 5 6
5 6 7 9 10 10 11 12 12 12 12 10 12 13 12 10 9 9 9 11 12 12 11 10 12 12 11 10 9 8 8 7 6 6 6 6 6 6 6 6 6 6 6 6
5 5 6 7 7 7 8 10 10 10 10 10 10 11 10 9 10 9 9 11 14 12 11 10 12 13 12 11 10 10 8 7 8 9 8 8 8 7 6 6 8 7 7 7
5 5 5 6 7 8 8 9 9 10 10 10 10 10 11 10 10 11 12 11 11 12 12 10 11 12 12 12 11 10 9 9 9 9 8 8 8 8 8 9 8 7 7 7
Wind_Direction
303 302 273 256 251 237 249 279 292 308 315 22 139 153 150 150 151 154 157 157 155 151 145 144 138 128 117 105 96 90 85 77 71 68 68 64 59 58 60 61 61 62 64 63
243 237 248 255 258 251 252 270 280 286 313 75 111 131 143 152 158 159 159 157 156 152 149 149 141 135 131 124 112 102 88 80 77 72 72 69 64 63 64 64 64 62 62 65
239 239 244 236 264 261 257 283 297 306 51 122 136 144 153 157 161 160 158 156 155 153 150 148 144 144 141 126 119 111 98 91 86 82 76 72 71 70 69 70 70 68 66 67
253 243 243 61 43 316 273 310 350 54 98 124 126 128 132 145 153 154 155 152 150 148 146 146 146 143 135 125 118 111 99 90 87 83 81 79 78 74 71 72 72 70 65 66
257 247 225 135 95 329 283 97 56 99 118 119 120 123 116 124 136 142 144 142 141 142 142 146 146 142 135 126 121 113 101 93 88 81 79 80 77 72 67 70 74 76 72 68
252 268 265 75 57 342 272 168 88 117 140 146 165 170 130 132 130 130 131 132 133 137 143 146 143 141 137 129 123 112 104 97 88 82 80 79 77 75 75 74 73 77 77 69
252 261 56 51 7 273 279 52 87 129 147 162 148 72 115 128 128 129 130 133 137 141 142 142 142 141 134 125 119 113 108 101 90 86 89 88 85 80 83 82 76 74 80 79
250 256 73 36 356 9 34 58 108 125 134 126 105 109 120 127 129 131 132 136 139 140 138 139 142 141 133 122 120 116 110 102 96 89 85 93 96 92 85 90 99 97 95 90
349 27 55 33 38 44 55 102 117 124 126 129 127 128 128 129 131 132 134 137 139 139 136 138 143 144 132 126 127 124 116 105 103 100 93 93 98 99 94 85 90 94 98 95
247 96 78 68 67 72 85 104 116 124 132 137 134 134 132 132 134 136 138 139 142 142 140 140 142 137 128 130 133 129 121 115 116 116 111 99 85 79 74 63 68 87 85 86
203 114 120 101 81 92 104 113 118 124 131 136 137 138 138 138 139 140 141 144 147 145 141 141 141 137 136 138 139 131 124 120 123 110 96 94 71 38 28 51 30 9 33 52
15 73 38 90 103 120 126 129 130 130 130 135 138 138 138 138 139 141 144 146 146 143 142 144 145 142 141 144 142 139 137 137 129 116 110 117 121 113 65 54 68 44 18 4
2 45 69 112 124 130 132 131 132 133 135 135 135 138 138 138 140 143 146 148 145 144 144 143 143 139 139 142 144 140 132 126 122 113 119 119 114 117 125 126 136 122 89 50
120 123 125 128 126 130 128 127 128 131 133 133 135 138 139 140 142 146 147 146 146 147 146 144 141 138 142 143 144 142 137 132 145 131 116 105 103 113 117 125 141 143 151 164
166 164 139 130 131 132 132 134 135 134 135 137 140 143 145 146 145 145 145 146 149 150 149 148 144 141 144 146 150 152 152 143 142 128 146 126 123 124 109 102 100 115 135 152
137 135 139 143 144 145 148 151 147 144 144 143 144 147 149 148 146 145 148 153 156 155 152 151 148 147 150 151 156 160 144 108 232 199 163 154 158 142 121 121 115 100 110 120
159 158 159 158 158 159 160 160 154 151 150 149 149 150 151 150 149 151 155 157 157 155 155 154 153 155 160 164 180 175 162 157 202 228 173 152 156 164 161 194 130 114 98 77
196 185 177 171 167 164 162 161 159 157 154 151 151 154 157 159 159 158 158 156 159 159 160 161 160 164 165 169 181 188 182 176 186 182 154 155 180 212 216 220 211 235 180 155
185 180 175 173 171 168 164 162 161 160 157 156 159 162 163 162 161 161 162 165 168 168 166 162 168 184 171 168 195 195 197 186 180 177 178 164 225 226 228 244 248 255 269 262
173 171 170 170 171 169 164 161 160 160 161 162 163 163 165 165 165 167 171 176 179 169 163 166 180 186 182 179 226 212 196 206 204 193 203 215 225 238 244 255 267 275 279 276
167 168 170 171 170 169 166 164 164 164 165 169 170 171 170 169 171 173 180 181 175 174 169 171 191 189 191 180 209 225 209 212 217 213 216 225 234 252 261 263 265 269 273 275
167 168 171 171 169 168 167 168 168 168 169 174 176 174 173 175 178 182 191 188 171 171 187 187 193 184 180 210 215 218 216 219 226 227 225 235 246 252 258 268 271 271 272 275
172 172 173 173 173 169 168 172 174 174 176 178 179 180 181 181 183 185 186 187 183 178 200 197 168 155 181 222 229 222 222 227 233 234 232 236 245 252 257 263 268 272 274 274
174 175 175 174 172 170 173 177 177 179 181 183 184 184 184 184 189 196 190 175 177 174 201 174 159 170 203 229 228 228 226 226 229 234 239 242 243 246 251 259 264 266 266 266
176 175 174 176 179 180 178 176 176 181 185 187 187 188 192 195 192 191 189 180 173 185 202 181 176 188 215 228 228 229 231 234 241 251 247 252 256 253 251 256 263 268 268 266
180 184 181 189 190 185 180 180 183 183 187 187 188 189 193 194 195 190 191 192 188 196 212 198 189 198 220 227 228 231 234 227 224 233 244 252 255 259 262 263 264 265 267 268
190 185 184 191 190 194 191 189 191 189 190 191 190 188 190 192 194 194 196 198 193 197 209 212 207 204 213 221 226 228 231 234 237 239 241 244 249 252 255 256 259 261 263 264